User: anonymous
Location: Unspecified
(0.0000°N, 0.0000°E)
Time: 02:17:41
(UTC+00:00)
Language:

ELEKTRO-L - Orbit

View from above orbital plane
View from above orbital plane
View from above satellite
View from above satellite

Ground track
Ground track

The orbit data is extracted from the following two-line orbital elements,

1 37344U 11001A   14264.11227819 -.00000117  00000-0  00000+0 0   947
2 37344 000.4196 080.4450 0000823 153.9923 241.8863 01.00277817 13480
Epoch (UTC): 21 September 2014 02:41:40
Eccentricity: 0.0000823
inclination: 0.4196°
perigee height: 35781 km
apogee height: 35788 km
right ascension of ascending node: 80.4450°
argument of perigee: 153.9923°
revolutions per day: 1.00277817
mean anomaly at epoch: 241.8863°
orbit number at epoch: 1348

The dashed part of the orbit path shows where the satellite is in the earth's shadow,  

DLR